{"data":{"norad_id":62339,"epoch":"2026-09-18T02:04:32.705760Z","epoch_age_seconds":222725,"freshness":"STALE","line1":"1 62339U 24242A   26261.08648965 -.00000094  00000+0  00000+0 0  9992","line2":"2 62339  54.8023 330.4119 0019531   0.8173   9.1481  2.00574134 13122","mean_motion":2.00574134,"eccentricity":0.0019531,"inclination_deg":54.8023,"raan_deg":330.4119,"arg_perigee_deg":0.8173,"mean_anomaly_deg":9.1481,"bstar":0,"rev_number":1312,"period_min":717.9390339534,"perigee_km":20129.408010073,"apogee_km":20233.154409484,"semimajor_km":26559.418209778,"source":"CELESTRAK","updated_at":"2026-09-20T09:00:46.121269Z"}}